This is the latest recevied weather packets stored in our database for station/object N5MDT. If no packets are shown the sender has not sent any weather packets the latest 10 day(s).
| Time | Temp. | Humidity | Pressure | Rain* | Wind** | Luminosity | Snow |
|---|---|---|---|---|---|---|---|
| 1777754928 | 26.67° C | 55% | 1020 hPa | 0 mm | - | - | - |
| 1777753698 | 25.56° C | 56% | 1020.1 hPa | 0 mm | - | - | - |
| 1777752528 | 25° C | 58% | 1020.4 hPa | 0 mm | - | - | - |
| 1777751913 | 25° C | 58% | 1020.6 hPa | 0 mm | - | - | - |
| 1777751328 | 24.44° C | 58% | 1020.5 hPa | 0 mm | - | - | - |
| 1777750728 | 23.89° C | 61% | 1020.6 hPa | 0 mm | - | - | - |
| 1777750113 | 23.33° C | 61% | 1020.8 hPa | 0 mm | - | - | - |
| 1777749527 | 23.33° C | 61% | 1020.9 hPa | 0 mm | - | - | - |
| 1777747727 | 22.78° C | 63% | 1021.2 hPa | 0 mm | - | - | - |
| 1777746527 | 22.22° C | 64% | 1021.4 hPa | 0 mm | - | - | - |
| 1777745927 | 21.67° C | 64% | 1021.5 hPa | 0 mm | - | - | - |
| 1777744697 | 21.11° C | 64% | 1021.6 hPa | 0 mm | - | - | - |
| 1777744097 | 21.11° C | 67% | 1021.8 hPa | 0 mm | - | - | - |
| 1777743526 | 20.56° C | 68% | 1022 hPa | 0 mm | - | - | - |
| 1777742926 | 20° C | 69% | 1022 hPa | 0 mm | - | - | - |
| 1777741697 | 19.44° C | 73% | 1022.1 hPa | 0 mm | - | - | - |
| 1777740496 | 18.89° C | 74% | 1022.2 hPa | 0 mm | - | - | - |
| 1777739926 | 18.33° C | 76% | 1022.2 hPa | 0 mm | - | - | - |
| 1777739326 | 17.78° C | 76% | 1022.2 hPa | 0 mm | - | - | - |
| 1777738696 | 17.78° C | 78% | 1022.3 hPa | 0 mm | - | - | - |
| 1777738096 | 17.22° C | 79% | 1022.1 hPa | 0 mm | - | - | - |
| 1777736325 | 16.67° C | 83% | 1021.8 hPa | 0 mm | - | - | - |
| 1777735695 | 16.11° C | 84% | 1021.9 hPa | 0 mm | - | - | - |
| 1777735096 | 15.56° C | 84% | 1021.8 hPa | 0 mm | - | - | - |
| 1777734495 | 15.56° C | 84% | 1021.9 hPa | 0 mm | - | - | - |
* Rain latest hour (hover to see other rain measurements)
** Current wind speed in m/s (hover to see current wind gust speed)